This is the latest recevied weather packets stored in our database for station/object VK4TW-13. If no packets are shown the sender has not sent any weather packets the latest 10 day(s).
| Time | Temp. | Humidity | Pressure | Rain* | Wind** | Luminosity | Snow |
|---|---|---|---|---|---|---|---|
| 1778302929 | 25° C | 100% | 1017.8 hPa | 0 mm | - | - | - |
| 1778302345 | 25° C | 100% | 1017.9 hPa | 0 mm | - | - | - |
| 1778301741 | 25° C | 100% | 1018 hPa | 0 mm | - | - | - |
| 1778301528 | 25° C | 100% | 1017.9 hPa | 0 mm | - | - | - |
| 1778301074 | 25.56° C | 100% | 1018.1 hPa | 0 mm | - | - | - |
| 1778300866 | 25.56° C | 100% | 1017.9 hPa | 0 mm | - | - | - |
| 1778300629 | 25.56° C | 100% | 1017.9 hPa | 0 mm | - | - | - |
| 1778300026 | 26.11° C | 100% | 1018 hPa | 0 mm | - | - | - |
| 1778299427 | 26.11° C | 100% | 1017.9 hPa | 0 mm | - | - | - |
| 1778299217 | 26.11° C | 100% | 1018 hPa | 0 mm | - | - | - |
| 1778298614 | 26.11° C | 100% | 1017.9 hPa | 0 mm | - | - | - |
| 1778298015 | 26.67° C | 96% | 1018.1 hPa | 0 mm | - | - | - |
| 1778297450 | 26.67° C | 93% | 1018.1 hPa | 0 mm | - | - | - |
| 1778297268 | 26.67° C | 93% | 1018.1 hPa | 0 mm | - | - | - |
| 1778296834 | 26.67° C | 93% | 1018.2 hPa | 0 mm | - | - | - |
| 1778296528 | 26.67° C | 92% | 1018.2 hPa | 0 mm | - | - | - |
| 1778295929 | 26.67° C | 89% | 1018.3 hPa | 0 mm | - | - | - |
| 1778295730 | 26.67° C | 90% | 1018.4 hPa | 0 mm | - | - | - |
| 1778295296 | 26.67° C | 90% | 1018.6 hPa | 0 mm | - | - | - |
| 1778294697 | 26.67° C | 91% | 1018.6 hPa | 0 mm | - | - | - |
| 1778294096 | 26.67° C | 88% | 1018.7 hPa | 0 mm | - | - | - |
| 1778293495 | 26.67° C | 90% | 1018.7 hPa | 0 mm | - | - | - |
| 1778293271 | 26.67° C | 90% | 1018.8 hPa | 0 mm | - | - | - |
| 1778293029 | 26.67° C | 89% | 1018.9 hPa | 0 mm | - | - | - |
| 1778292787 | 26.67° C | 89% | 1019 hPa | 0 mm | - | - | - |
* Rain since midnight (hover to see other rain measurements)
** Current wind speed in m/s (hover to see current wind gust speed)